Location: Ocean City
(38.3360°N, 75.0850°W)
Time: 07:12:53
(UTC-05:00)

DX 1 - Visible Passes

Search period start: 22 November 2019 00:00
Search period end: 02 December 2019 00:00
Orbit: 618 x 632 km, 98.4° (Epoch: 22 November)

Date Brightness Start Highest point End Pass type
(mag) Time Alt. Az. Time Alt. Az. Time Alt. Az.
22 Nov ? 18:15:28 10° NW 18:17:09 12° WNW 18:18:49 10° W visible
24 Nov ? 17:14:56 10° N 17:19:08 50° WNW 17:23:19 10° SSW visible
25 Nov ? 17:34:02 10° N 17:37:52 31° WNW 17:41:41 10° SW visible
26 Nov ? 17:53:22 10° NNW 17:56:33 20° WNW 17:59:43 10° WSW visible
27 Nov ? 18:13:09 10° NW 18:15:11 13° WNW 18:17:12 10° W visible
29 Nov ? 17:12:53 10° N 17:17:08 55° WNW 17:21:22 10° SSW visible
30 Nov ? 17:31:57 10° N 17:35:52 34° WNW 17:39:47 10° SW visible
01 Dec ? 17:51:13 10° NNW 17:54:34 22° WNW 17:57:54 10° WSW visible
